User: anonymous   Login
Location: Newark
(42.9260°N, 89.3850°W)
Time: 14:24:35
(UTC+00:00)
Language:

STARLINK-1060 - Orbit

View from above orbital plane
View from above orbital plane
View from above satellite
View from above satellite

Ground track
Ground track

The orbit data is extracted from the following two-line orbital elements,

1 44765U 19074BE  20057.25002315  .00017876  00000-0  12429-2 0  9998
2 44765  52.9987  18.2429 0001993  54.9232 182.0180 15.05579549 16558
Epoch (UTC): 26 February 2020 06:00:02
Eccentricity: 0.0001993
inclination: 52.9987°
perigee height: 548 km
apogee height: 551 km
right ascension of ascending node: 18.2429°
argument of perigee: 54.9232°
revolutions per day: 15.05579549
mean anomaly at epoch: 182.0180°
orbit number at epoch: 1655

The dashed part of the orbit path shows where the satellite is in the earth's shadow,  

DLR